This is the latest recevied weather packets stored in our database for station/object AA8FM-13. If no packets are shown the sender has not sent any weather packets the latest 10 day(s).
| Time | Temp. | Humidity | Pressure | Rain* | Wind** | Luminosity | Snow |
|---|---|---|---|---|---|---|---|
| 1777992974 | 22.22° C | 52% | 1008.7 hPa | 0 mm | - | 542 W/m² | - |
| 1777992673 | 21.67° C | 51% | 1008.7 hPa | 0 mm | - | 529 W/m² | - |
| 1777992370 | 21.67° C | 52% | 1008.6 hPa | 0 mm | - | 514 W/m² | - |
| 1777992068 | 22.22° C | 53% | 1008.5 hPa | 0 mm | - | 456 W/m² | - |
| 1777991765 | 21.67° C | 51% | 1008.5 hPa | 0 mm | - | 485 W/m² | - |
| 1777991462 | 21.67° C | 53% | 1008.8 hPa | 0 mm | - | 446 W/m² | - |
| 1777991159 | 21.67° C | 52% | 1008.8 hPa | 0 mm | - | 454 W/m² | - |
| 1777990856 | 21.67° C | 51% | 1008.8 hPa | 0 mm | - | 440 W/m² | - |
| 1777990554 | 21.67° C | 52% | 1008.7 hPa | 0 mm | - | 429 W/m² | - |
| 1777989947 | 21.67° C | 52% | 1008.8 hPa | 0 mm | - | 394 W/m² | - |
| 1777989644 | 21.11° C | 53% | 1008.9 hPa | 0 mm | - | 418 W/m² | - |
| 1777989340 | 20.56° C | 53% | 1008.8 hPa | 0 mm | - | 408 W/m² | - |
| 1777989037 | 20.56° C | 55% | 1008.9 hPa | 0 mm | - | 104 W/m² | - |
| 1777988733 | 20.56° C | 54% | 1009 hPa | 0 mm | - | 397 W/m² | - |
| 1777988430 | 20.56° C | 56% | 1008.9 hPa | 0 mm | - | 143 W/m² | - |
| 1777988127 | 20.56° C | 54% | 1009 hPa | 0 mm | - | 359 W/m² | - |
| 1777987823 | 20° C | 56% | 1008.9 hPa | 0 mm | - | 396 W/m² | - |
| 1777987520 | 20° C | 55% | 1008.9 hPa | 0 mm | - | 167 W/m² | - |
| 1777987217 | 20° C | 55% | 1008.9 hPa | 0 mm | - | 126 W/m² | - |
| 1777986914 | 20.56° C | 54% | 1009 hPa | 0 mm | - | 111 W/m² | - |
| 1777986612 | 20.56° C | 56% | 1008.5 hPa | 0 mm | - | 213 W/m² | - |
| 1777986309 | 20° C | 56% | 1008.7 hPa | 0 mm | - | 180 W/m² | - |
| 1777986008 | 20° C | 57% | 1008.7 hPa | 0 mm | - | 124 W/m² | - |
| 1777985704 | 20° C | 56% | 1008.8 hPa | 0 mm | - | 150 W/m² | - |
| 1777985400 | 20° C | 57% | 1008.6 hPa | 0 mm | - | 106 W/m² | - |
* Rain latest hour (hover to see other rain measurements)
** Current wind speed in m/s (hover to see current wind gust speed)